DW6376 Weather Reports


Display with metric or nautical units.
time (UTC)temp
F
wind
direction
speed
MPH
gust
MPH
rain 1hr
in
rain 24hr
in
rain mn
in
humidity
%
barometer
mb
20260509083035 59 355 0.0 0.0 0.00 0.00 0.00 40 1012.9
20260509081532 59 270 1.0 0.0 0.00 0.00 0.00 40 1012.9
20260509080045 59 338 0.0 0.0 0.00 0.00 0.00 38 1012.9
20260509074529 58 21 0.0 0.0 0.00 0.00 0.00 39 1012.8
20260509073041 57 320 0.0 0.0 0.00 0.00 0.00 38 1012.8
20260509071521 55 9 0.0 0.0 0.00 0.00 0.00 48 1012.7
20260509070020 56 9 0.0 0.0 0.00 0.00 0.00 48 1012.5
20260509064506 57 9 0.0 0.0 0.00 0.00 0.00 45 1012.4
20260509063005 58 9 0.0 0.0 0.00 0.00 0.00 43 1012.6
20260509061505 57 5 0.0 0.0 0.00 0.00 0.00 40 1012.7
20260509060012 57 14 0.0 0.0 0.00 0.00 0.00 41 1012.7
20260509054504 57 21 0.0 0.0 0.00 0.00 0.00 42 1012.5
20260509053010 58 21 0.0 0.0 0.00 0.00 0.00 41 1012.5
20260509051503 59 21 0.0 0.0 0.00 0.00 0.00 39 1012.3
20260509050006 59 21 0.0 0.0 0.00 0.00 0.00 40 1012.2
20260509044545 60 21 0.0 0.0 0.00 0.00 0.00 39 1012.2
20260509043053 60 21 0.0 0.0 0.00 0.00 0.00 37 1012.2
20260509041527 61 21 0.0 0.0 0.00 0.00 0.00 35 1012.1
20260509040026 62 21 0.0 0.0 0.00 0.00 0.00 33 1012.0
20260509034513 62 21 0.0 0.0 0.00 0.00 0.00 34 1011.9
20260509033010 63 21 0.0 0.0 0.00 0.00 0.00 34 1011.8
20260509031556 63 21 0.0 0.0 0.00 0.00 0.00 34 1011.6
20260509030056 65 21 0.0 0.0 0.00 0.00 0.00 33 1011.6
20260509024555 67 21 0.0 0.0 0.00 0.00 0.00 33 1011.6
20260509023054 68 21 0.0 0.0 0.00 0.00 0.00 31 1011.5
20260509021554 70 21 0.0 0.0 0.00 0.00 0.00 28 1011.5
20260509020053 72 21 0.0 0.0 0.00 0.00 0.00 26 1011.5
20260509014553 73 21 0.0 0.0 0.00 0.00 0.00 27 1011.6
20260509013101 74 21 0.0 0.0 0.00 0.00 0.00 20 1011.6
20260509011533 75 21 0.0 0.0 0.00 0.00 0.00 20 1011.8
20260509010032 76 276 0.0 0.0 0.00 0.00 0.00 19 1011.9
20260509004533 76 276 0.0 0.0 0.00 0.00 0.00 20 1012.0
20260509003013 76 263 0.0 0.0 0.00 0.00 0.00 19 1012.1
20260509001554 76 291 0.0 0.0 0.00 0.00 0.00 18 1012.0
20260509000054 77 317 0.0 0.0 0.00 0.00 0.00 19 1012.0
20260508234545 77 329 0.0 0.0 0.00 0.00 0.00 20 1011.9
20260508233040 78 355 0.0 0.0 0.00 0.00 0.00 20 1011.8
20260508231539 78 332 0.0 0.0 0.00 0.00 0.00 18 1012.0
20260508230051 79 30 1.0 0.0 0.00 0.00 0.00 18 1012.3
20260508224535 78 327 0.0 0.0 0.00 0.00 0.00 20 1012.2
20260508223033 77 273 0.0 0.0 0.00 0.00 0.00 19 1012.4
20260508221530 77 264 1.0 0.0 0.00 0.00 0.00 20 1012.6
20260508220030 76 360 1.0 0.0 0.00 0.00 0.00 20 1012.8
20260508214510 77 302 1.0 0.0 0.00 0.00 0.00 19 1013.2
20260508213009 77 327 0.0 0.0 0.00 0.00 0.00 20 1013.2
20260508211549 76 27 1.0 0.0 0.00 0.00 0.00 21 1013.6
20260508210105 75 63 0.0 0.0 0.00 0.00 0.00 23 1013.7
20260508204537 75 340 1.0 0.0 0.00 0.00 0.00 20 1013.8
20260508203033 75 37 1.0 0.0 0.00 0.00 0.00 22 1014.1
20260508201531 74 286 1.0 0.0 0.00 0.00 0.00 22 1014.3
20260508200038 73 38 1.0 0.0 0.00 0.00 0.00 21 1014.2
20260508194527 73 317 1.0 0.0 0.00 0.00 0.00 22 1014.4
20260508193026 72 46 1.0 0.0 0.00 0.00 0.00 22 1014.3
20260508191525 72 355 1.0 0.0 0.00 0.00 0.00 25 1014.5
20260508190022 71 116 1.0 0.0 0.00 0.00 0.00 25 1014.8
20260508184502 70 44 1.0 0.0 0.00 0.00 0.00 26 1015.0
20260508183100 70 360 1.0 0.0 0.00 0.00 0.00 29 1015.1
20260508181559 69 291 0.0 0.0 0.00 0.00 0.00 30 1015.1
20260508180045 68 41 1.0 0.0 0.00 0.00 0.00 30 1015.2
20260508174545 68 43 1.0 0.0 0.00 0.00 0.00 29 1015.3
20260508173046 67 5 0.0 0.0 0.00 0.00 0.00 28 1015.4
20260508171538 67 317 1.0 0.0 0.00 0.00 0.00 30 1015.4
20260508170039 65 33 0.0 0.0 0.00 0.00 0.00 44 1015.3
20260508164532 64 33 0.0 0.0 0.00 0.00 0.00 43 1015.2
20260508163029 63 33 0.0 0.0 0.00 0.00 0.00 44 1015.2
20260508161513 62 33 0.0 0.0 0.00 0.00 0.00 46 1015.1
20260508160016 60 33 0.0 0.0 0.00 0.00 0.00 47 1015.1
20260508154507 59 33 0.0 0.0 0.00 0.00 0.00 51 1015.2
20260508153003 58 33 0.0 0.0 0.00 0.00 0.00 51 1015.2
20260508151604 56 33 0.0 0.0 0.00 0.00 0.00 53 1015.1
20260508144620 52 33 0.0 0.0 0.00 0.00 0.00 67 1015.1
20260508143109 51 33 0.0 0.0 0.00 0.00 0.00 67 1015.2
20260508141550 50 33 0.0 0.0 0.00 0.00 0.00 70 1015.2
20260508140046 49 33 0.0 0.0 0.00 0.00 0.00 72 1015.1
20260508134541 49 33 0.0 0.0 0.00 0.00 0.00 69 1015.1
20260508133104 48 33 0.0 0.0 0.00 0.00 0.00 67 1015.0
20260508131533 48 33 0.0 0.0 0.00 0.00 0.00 64 1014.9
20260508130031 49 33 0.0 0.0 0.00 0.00 0.00 62 1014.8
20260508124533 49 33 0.0 0.0 0.00 0.00 0.00 60 1014.5
20260508123028 49 33 0.0 0.0 0.00 0.00 0.00 63 1014.4
20260508121534 49 33 0.0 0.0 0.00 0.00 0.00 62 1014.3
20260508120008 49 33 0.0 0.0 0.00 0.00 0.00 60 1014.2
20260508114508 49 33 0.0 0.0 0.00 0.00 0.00 61 1014.3
20260508113106 49 33 0.0 0.0 0.00 0.00 0.00 59 1014.2
20260508111602 50 33 0.0 0.0 0.00 0.00 0.00 59 1014.0
20260508110056 50 33 0.0 0.0 0.00 0.00 0.00 58 1014.1
20260508104550 50 33 0.0 0.0 0.00 0.00 0.00 56 1013.9
20260508103058 50 33 0.0 0.0 0.00 0.00 0.00 56 1013.8
20260508101549 50 33 0.0 0.0 0.00 0.00 0.00 57 1013.8
20260508100046 51 33 0.0 0.0 0.00 0.00 0.00 55 1013.9
20260508094545 51 33 0.0 0.0 0.00 0.00 0.00 55 1013.7
20260508093030 51 33 0.0 0.0 0.00 0.00 0.00 56 1013.7
20260508091525 52 33 0.0 0.0 0.00 0.00 0.00 55 1013.5
20260508090011 52 33 0.0 0.0 0.00 0.00 0.00 53 1013.5
20260508084504 52 33 0.0 0.0 0.00 0.00 0.00 53 1013.5